Cordoba, Spain

5:56 AM CET on February 07, 2016 (GMT +0100)
Cordoba

Weather History for LEBA - March, 2014

Change the Weather History Date:

Friday, March 7, 2014

  Actual Average Record
Temperature  
Mean Temperature 57 °F -  
Max Temperature 73 °F - - ()
Min Temperature 41 °F - - ()
Degree Days  
Heating Degree Days 8    
Growing Degree Days 7 (Base 50)    
Moisture  
Dew Point 45 °F    
Average Humidity 64    
Maximum Humidity 100    
Minimum Humidity 27    
Precipitation  
Precipitation 0.00 in 0.08 in - ()
Sea Level Pressure  
Sea Level Pressure 30.17 in    
Wind  
Wind Speed 1 mph ()    
Max Wind Speed 6 mph    
Max Gust Speed -    
Visibility 14.0 miles    
Events      
T = Trace of Precipitation, MM = Missing Value Source: Averaged Metar Reports

Daily Weather History Graph

Daily Weather History Graph

Search for Another Location

Airport or City:

Trip Planner

Search our weather history database for the weather conditions in past years. The results will help you decide how hot, cold, wet, or windy it might be!

Date:

Astronomy

Mar. 07, 2014 Rise Set
Actual Time 7:42 AM CET 7:18 PM CET
Civil Twilight 7:16 AM CET 7:44 PM CET
Nautical Twilight 6:46 AM CET 8:15 PM CET
Astronomical Twilight 6:15 AM CET 8:45 PM CET
Moon 11:30 AM CET 1:04 AM CET
Length of Visible Light 12h 28m
Length of Day
11h 36m
Waxing Crescent, 39% of the Moon is Illuminated
Mar 7
Waxing Crescent
Mar 8
First Quarter
Mar 16
Full
Mar 24
Last Quarter
Mar 30
New

Hourly Weather History & Observations

Time (CET) Temp. Dew Point Humidity Pressure Visibility Wind Dir Wind Speed Gust Speed Precip Events Conditions
12:00 AM 49 °F 45 °F 81% 30.11 in - Calm Calm - -  
1:00 AM 48 °F 45 °F 84% 30.11 in - Calm Calm - -  
1:00 AM 48.2 °F 44.6 °F 87% 30.09 in - Calm Calm - N/A   Clear
2:00 AM 46 °F 44 °F 89% 30.12 in - East 2.3 mph - -  
2:00 AM 48.2 °F 44.6 °F 87% 30.09 in - Variable 1.2 mph - N/A   Clear
3:00 AM 46 °F 43 °F 86% 30.14 in - Calm Calm - -  
4:00 AM 44 °F 42 °F 89% 30.14 in - Calm Calm - -  
5:00 AM 44 °F 42 °F 91% 30.16 in - Calm Calm - -  
6:00 AM 44 °F 42 °F 90% 30.18 in - Calm Calm - -  
7:00 AM 42 °F 42 °F 98% 30.19 in 16 mi Calm Calm - -  
7:00 AM 42.8 °F 41.0 °F 93% 30.18 in - Calm Calm - N/A   Clear
8:00 AM 41 °F 41 °F 100% 30.21 in - Calm Calm - -  
8:00 AM 41.0 °F 39.2 °F 93% 30.18 in - Calm Calm - N/A   Clear
9:00 AM 48 °F 45 °F 87% 30.23 in - Calm Calm - -  
9:00 AM 48.2 °F 44.6 °F 87% 30.21 in - Calm Calm - N/A   Clear
10:00 AM 55 °F 48 °F 70% 30.23 in 31 mi East 2.3 mph - -  
10:00 AM 53.6 °F 46.4 °F 77% 30.21 in - Variable 2.3 mph - N/A   Clear
11:00 AM 61 °F 49 °F 56% 30.23 in - East 1.2 mph - -  
11:00 AM 59.0 °F 48.2 °F 67% 30.21 in - Variable 1.2 mph - N/A   Clear
12:00 PM 64 °F 46 °F 42% 30.22 in - ENE 5.8 mph - -  
12:00 PM 62.6 °F 46.4 °F 55% 30.21 in - ENE 5.8 mph - N/A   Clear
1:00 PM 67 °F 49 °F 41% 30.21 in 31 mi ENE 2.3 mph - -  
1:00 PM 64.4 °F 46.4 °F 52% 30.21 in - ENE 2.3 mph - N/A   Clear
2:00 PM 68 °F 47 °F 36% 30.19 in - ENE 2.3 mph - -  
2:00 PM 68.0 °F 46.4 °F 46% 30.18 in - East 1.2 mph - N/A   Clear
3:00 PM 70 °F 46 °F 32% 30.17 in - East 1.2 mph - -   Unknown Precipitation
3:00 PM 68.0 °F 44.6 °F 43% 30.15 in - East 1.2 mph - N/A   Clear
4:00 PM 72 °F 47 °F 30% 30.15 in 28 mi Calm Calm - -  
4:00 PM 69.8 °F 46.4 °F 43% 30.15 in - Calm Calm - N/A   Clear
5:00 PM 73 °F 46 °F 27% 30.14 in - Calm Calm - -  
5:00 PM 69.8 °F 46.4 °F 43% 30.12 in - Calm Calm - N/A   Clear
6:00 PM 71 °F 46 °F 29% 30.14 in - Calm Calm - -   Unknown Precipitation
6:00 PM 69.8 °F 46.4 °F 43% 30.12 in - Calm Calm - N/A   Clear
7:00 PM 70 °F 44 °F 28% 30.14 in 28 mi Calm Calm - -  
7:00 PM 68.0 °F 44.6 °F 43% 30.12 in - Calm Calm - N/A   Clear
8:00 PM 59 °F 49 °F 60% 30.17 in - West 5.8 mph - -   Unknown Precipitation
8:00 PM 59.0 °F 48.2 °F 67% 30.15 in - West 5.8 mph - N/A   Clear
9:00 PM 57 °F 47 °F 61% 30.19 in - WSW 5.8 mph - -  
10:00 PM 54 °F 47 °F 68% 30.20 in 12 mi WSW 4.6 mph - -  
11:00 PM 52 °F 46 °F 72% 30.21 in - SW 2.3 mph - -